Flag for Germany Weather past 2 weeks in Bocholt, North Rhine-Westphalia, Germany

Now
46 °F

Partly sunny.


Feels Like: 41 °F
Forecast: 36 / 54 °F
Wind: 10 mph from West

Location: Niederrhein

Current Time: Mar 6, 2015 at 2:19:29 PM

Latest Report: Mar 6, 2015 at 1:50 PM


Visibility: N/A

Pressure: 30.57 "Hg

Humidity: 66%

Dew point: 36 °F

Location of BocholtLocation

Historic Weather in Bocholt — Graph

°F

Bocholt temperature yesterday

Maximum temperature yesterday: 48 °F (at 1:20 PM)
Minimum temperature yesterday: 34 °F (at 5:20 AM)
Average temperature yesterday: 42 °F

Past Weeks' High & Low Weather Summary

 TemperatureHumidityPressure
High52 °F (Mar 1, 11:20 AM)100% (Feb 19, 12:20 PM)30.66 "Hg (Feb 19, 12:20 PM)
Low30 °F (Feb 22, 5:50 AM)54% (Mar 2, 12:20 PM)29.33 "Hg (Feb 23, 2:20 PM)
Average42 °F94%29.91 "Hg
* Reported Feb 19 12:20 PM — Mar 6 12:50 PM, Bocholt, Weather by CustomWeather, © 2015

Note: Actual official high and low records may vary slightly from our data, if they occured in-between our weather recording intervals... More about our weather records

Advertising

Bocholt weather history for previous 24 hours

 ConditionsComfort  
Time TempWeatherWind HumidityBarometerVisibility
12:50 PM
Fri, Mar 6
46 °FPartly sunny.9 mph71%30.60 "HgN/A
12:20 PM45 °FPartly sunny.8 mphN/A30.60 "HgN/A
11:50 AM45 °FPartly sunny.9 mphN/A30.60 "HgN/A
11:20 AM43 °FPartly sunny.9 mph100%30.63 "HgN/A
10:50 AM43 °FPartly sunny.8 mph100%30.63 "HgN/A
10:20 AM41 °FPartly sunny.9 mph100%30.60 "HgN/A
9:50 AM41 °FPartly sunny.7 mph100%30.60 "HgN/A
9:20 AM41 °FPartly sunny.8 mph100%30.60 "HgN/A
8:50 AM41 °FPartly sunny.7 mph100%30.60 "HgN/A
8:20 AM41 °FPartly sunny.7 mph100%30.60 "HgN/A
7:50 AM41 °FPassing clouds.7 mph100%30.60 "HgN/A
6:50 AM39 °FPassing clouds.6 mph100%30.60 "HgN/A
6:20 AM39 °FPassing clouds.5 mph100%30.60 "HgN/A
5:50 AM39 °FPassing clouds.5 mph100%30.60 "HgN/A
5:20 AM39 °FPassing clouds.3 mph100%30.60 "HgN/A
4:50 AM39 °FPassing clouds.3 mph100%30.60 "HgN/A
11:50 PM
Thu, Mar 5
37 °FClear.3 mph100%30.63 "Hg10 mi
11:20 PM37 °FClear.5 mph100%30.63 "Hg10 mi
10:50 PM36 °FClear.3 mph100%30.63 "Hg10 mi
10:20 PM37 °FClear.5 mph100%30.63 "Hg10 mi
9:50 PM39 °FClear.3 mph100%30.63 "Hg10 mi
9:20 PM37 °FClear.3 mph100%30.63 "Hg10 mi
8:50 PM41 °FClear.3 mph100%30.63 "Hg10 mi
8:20 PM37 °FClear.5 mph100%30.63 "Hg10 mi
7:50 PM43 °FClear.5 mph100%30.63 "Hg10 mi
7:20 PM43 °FSunny.5 mph100%30.63 "Hg10 mi
6:50 PM45 °FSunny.6 mph93%30.63 "Hg10 mi
6:20 PM46 °FSunny.6 mph87%30.63 "Hg10 mi
5:50 PM46 °FCool.9 mph82%30.63 "HgN/A
5:20 PM48 °FCool.9 mph76%30.63 "HgN/A
4:50 PM48 °FScattered clouds.9 mph71%30.63 "HgN/A
4:20 PM48 °FPassing clouds.10 mph76%30.63 "HgN/A
3:50 PM48 °FScattered clouds.12 mph82%30.63 "HgN/A
3:20 PM48 °FScattered clouds.12 mph76%30.63 "HgN/A
2:50 PM48 °FPassing clouds.12 mph76%30.63 "HgN/A
2:20 PM48 °FPassing clouds.12 mph76%30.63 "HgN/A
Weather by CustomWeather, © 2015

See weather overviewHow to use our weather pages